Theta_e
295 297 298 297 297 297 293 293 289 293 292 295 300 307 306 307 308 308 310 314 319 322 323 325 326 329 328 326 326 324 321 324 319 318 317 315 316 314 314 312 312 311 311 309
292 298 296 294 297 297 295 295 296 295 293 304 305 305 304 304 305 306 308 310 323 326 329 328 326 326 325 325 323 323 322 322 319 318 317 316 316 314 312 311 311 311 309 308
288 295 294 290 294 295 295 300 299 296 299 302 301 302 302 303 304 305 308 311 317 327 327 324 323 324 323 324 322 321 322 322 320 319 319 318 318 314 311 310 307 307 308 309
287 289 282 293 298 299 299 301 300 304 304 304 303 303 304 306 305 306 308 311 316 327 323 322 322 322 322 322 321 321 321 321 321 320 321 320 316 313 309 305 305 308 306 304
284 284 289 294 297 297 295 297 299 298 305 306 308 308 305 309 309 306 307 315 322 326 322 319 319 320 320 318 318 320 320 320 322 322 320 317 314 311 305 305 303 303 303 302
286 283 282 292 300 304 301 292 299 299 300 301 301 294 297 305 308 306 307 313 318 324 324 318 317 316 317 316 318 320 322 323 324 321 318 313 310 306 305 304 303 303 299 296
285 284 288 297 302 305 289 290 300 299 298 297 295 299 301 304 305 305 307 309 311 317 321 319 318 317 316 320 320 322 323 319 315 313 313 310 306 304 303 301 300 298 294 292
286 283 283 299 300 294 298 302 301 298 298 297 297 298 299 302 302 302 306 309 310 310 319 320 319 317 316 319 322 322 318 312 310 310 311 308 303 301 301 301 299 293 291 291
290 289 296 297 297 300 300 298 299 299 300 299 299 299 301 302 302 303 304 308 310 307 314 315 319 317 315 317 320 317 313 310 309 309 305 302 300 301 300 296 293 292 292 289
289 291 294 296 297 298 297 297 300 301 300 301 299 301 301 302 302 302 304 306 307 306 307 309 316 318 317 317 319 313 310 309 309 305 300 295 296 297 296 292 291 291 290 288
288 292 293 294 296 296 297 298 299 300 300 300 300 299 299 300 302 303 303 304 305 306 309 312 315 316 315 316 316 312 310 309 308 304 296 292 292 291 293 291 291 288 287 288
287 292 290 292 296 297 297 297 298 298 298 301 300 299 300 301 302 302 302 302 305 306 309 312 315 314 314 316 314 312 311 309 302 301 295 293 292 291 292 292 292 291 291 290
289 294 294 296 297 297 297 298 299 298 299 298 299 298 299 298 300 302 302 302 305 308 312 313 313 316 316 315 314 313 309 308 301 299 295 292 291 290 289 290 292 291 291 291
294 293 292 295 294 297 297 298 300 299 300 300 300 300 300 299 301 302 302 303 306 310 313 310 314 314 314 314 313 311 307 299 300 296 295 292 291 291 290 289 289 288 291 291
295 295 294 296 297 297 299 299 298 299 300 301 303 303 303 304 304 306 307 309 310 312 311 310 312 312 313 313 311 309 306 300 299 298 296 295 294 293 292 291 289 289 292 292
295 296 299 297 297 299 299 298 297 298 300 303 304 305 306 307 307 307 308 309 309 309 310 309 309 312 313 312 307 304 300 296 297 298 296 295 293 292 290 289 288 291 291 290
298 298 300 300 301 301 301 303 303 303 304 304 305 306 306 306 305 305 306 307 308 310 309 308 309 313 312 312 304 302 300 299 292 297 295 293 292 290 289 288 288 291 291 290
302 302 302 301 301 301 301 303 303 303 304 305 307 306 305 303 302 303 304 305 306 306 307 308 311 312 313 308 303 300 301 299 297 296 294 293 291 290 289 288 291 292 292 291
303 302 303 303 304 303 303 303 305 306 305 305 305 304 304 303 303 304 305 304 304 304 306 310 303 309 308 302 301 302 299 297 296 295 294 290 290 290 289 291 292 292 292 291
302 304 305 305 306 306 305 307 307 306 307 307 306 304 303 303 305 306 308 305 306 309 309 308 309 303 299 298 298 300 299 297 296 295 293 291 290 289 289 289 292 292 291 290
303 305 305 305 304 303 303 302 302 301 304 307 306 305 305 305 305 308 306 305 306 308 308 301 300 300 301 300 301 301 298 297 295 293 292 291 290 290 290 292 292 292 290 290
304 305 305 304 302 300 301 301 301 301 301 303 307 307 306 304 306 308 308 305 303 293 300 298 299 293 297 294 300 299 298 296 294 293 291 291 290 290 291 292 292 291 290 290
304 304 304 303 300 300 300 300 300 304 302 302 306 306 306 307 305 303 300 299 299 292 298 297 290 290 291 301 300 299 298 296 294 293 292 291 293 295 294 292 292 291 290 289
304 305 303 303 302 299 298 299 300 301 304 307 307 305 302 299 298 299 295 290 289 295 297 296 292 291 294 300 299 297 295 295 293 292 292 290 296 296 294 293 292 291 291 290
304 304 303 301 299 298 299 299 299 299 298 298 299 301 303 303 297 295 295 294 290 296 296 290 290 292 298 298 297 295 294 293 292 292 293 296 296 295 295 293 292 291 291 290
304 303 302 302 300 299 300 299 297 298 298 297 297 298 298 298 298 298 297 296 298 295 298 299 298 298 298 297 295 294 293 292 292 292 296 297 296 292 295 293 292 291 291 289
303 299 303 301 300 300 299 298 297 297 298 298 297 299 299 298 297 297 295 298 298 298 298 297 297 295 296 295 294 293 292 292 290 296 297 295 292 290 290 293 291 291 290 289
Wind_Speed
4 5 2 3 6 3 5 7 5 7 6 11 7 8 8 9 13 15 16 16 15 15 14 11 2 8 9 10 11 9 15 11 10 4 5 4 3 4 4 3 2 2 1 2
3 3 5 3 9 8 3 1 3 5 3 7 7 8 16 15 16 17 17 17 18 18 16 14 3 9 10 9 9 6 6 12 10 5 5 3 1 2 3 2 2 2 3 3
5 3 5 6 5 2 2 6 2 6 2 4 8 12 11 12 13 14 15 16 16 15 15 11 2 7 10 10 5 5 7 5 4 3 5 4 5 3 3 3 2 3 3 4
3 3 3 5 6 2 9 5 8 3 2 2 4 4 3 6 9 13 15 16 14 12 12 10 7 6 5 6 7 4 6 5 4 4 3 4 3 3 2 2 2 2 3 4
2 3 6 10 2 2 2 3 7 3 6 5 6 1 5 8 8 7 8 9 11 9 6 7 7 7 6 6 3 5 5 2 3 3 1 3 4 3 2 2 1 3 3 6
2 3 5 8 2 4 1 1 2 7 7 5 7 5 5 8 8 8 7 6 10 11 9 7 6 2 3 2 4 5 6 4 3 2 5 3 4 4 1 1 4 3 7 7
3 4 7 7 11 8 3 6 2 4 4 4 4 4 6 8 8 6 8 10 11 9 7 7 7 4 3 5 5 2 4 4 3 4 5 4 3 1 2 4 5 6 8 5
2 2 5 7 5 3 4 6 3 4 4 3 3 4 5 6 7 7 7 9 10 9 6 6 7 5 6 4 2 3 4 5 5 4 3 2 3 2 3 5 6 6 5 4
5 5 4 4 5 2 1 3 5 5 7 6 7 7 8 6 5 8 8 7 7 7 8 8 7 6 6 3 4 3 5 5 4 5 5 4 5 5 4 6 5 4 4 3
3 4 5 3 3 2 3 5 9 9 8 5 7 8 8 7 7 7 7 8 6 8 9 10 7 6 6 5 5 5 6 5 3 6 6 6 5 5 6 5 5 4 4 4
6 9 8 5 5 4 6 6 8 9 8 10 10 10 10 7 7 7 7 8 6 7 8 9 7 4 2 0 4 3 5 1 4 5 7 6 8 5 6 5 4 4 2 2
9 10 6 8 8 7 14 14 13 14 13 12 9 11 10 10 10 9 10 6 7 8 8 9 5 2 0 5 7 7 3 2 2 5 5 6 7 9 13 10 11 10 8 5
6 5 6 16 13 11 14 16 16 12 12 10 13 9 11 8 8 9 9 7 8 8 7 4 2 3 3 7 8 6 2 4 3 5 6 6 5 5 5 2 3 7 8 9
10 6 8 8 9 9 9 15 14 12 11 11 11 8 8 7 7 7 9 9 7 6 4 1 3 5 5 6 5 5 5 2 4 5 6 6 5 4 3 2 3 4 5 7
11 7 9 12 12 14 14 13 12 12 11 11 7 8 7 8 8 7 7 4 4 4 2 4 6 5 5 6 5 3 4 4 6 7 6 7 5 4 4 4 4 3 4 6
14 12 12 10 12 11 9 9 8 11 11 11 10 8 7 6 6 6 7 4 2 5 5 5 5 6 4 6 5 5 6 9 9 7 6 5 4 4 3 4 3 3 4 4
6 9 10 14 13 13 15 13 11 12 12 10 11 8 6 6 6 6 8 7 6 7 5 6 7 7 4 5 5 5 7 7 8 7 6 4 4 4 4 3 2 4 3 5
8 11 12 13 14 14 16 14 13 14 14 14 12 10 8 6 7 8 8 7 4 2 5 7 8 7 5 6 8 8 7 7 7 7 5 5 4 4 3 2 4 3 3 5
14 16 17 17 16 16 16 17 16 15 14 13 14 14 11 8 7 8 6 4 5 6 5 8 10 7 6 7 10 9 8 9 8 7 6 5 5 4 3 3 3 4 4 5
16 15 16 16 17 17 17 16 17 17 15 13 13 12 10 7 8 7 5 5 4 2 7 8 5 5 8 11 13 9 9 9 9 7 5 4 4 4 3 3 4 4 5 5
17 17 16 15 11 10 10 12 14 15 15 14 12 10 10 8 6 6 8 5 3 8 9 8 7 7 8 10 9 9 8 8 8 6 5 4 4 4 3 4 4 4 5 4
15 14 14 11 10 11 13 16 17 19 16 13 10 9 8 6 5 7 5 9 6 8 6 5 6 10 9 11 9 9 8 8 7 6 5 4 4 3 4 3 4 5 5 3
14 15 9 9 9 12 14 16 19 17 4 9 10 9 6 6 8 11 10 4 6 8 8 8 10 13 13 10 9 9 8 8 7 5 4 4 3 3 4 4 5 4 4 3
13 11 8 8 8 11 14 16 16 15 14 10 10 12 13 11 10 9 10 9 11 12 10 9 12 13 11 9 9 8 6 8 6 4 4 4 4 4 4 5 5 4 3 3
11 7 7 9 8 8 11 12 12 12 16 17 16 14 14 11 14 7 9 10 11 14 11 13 14 13 9 9 9 7 7 5 5 4 4 3 4 4 5 4 4 4 3 3
6 4 5 8 7 8 7 8 9 9 11 14 13 12 12 11 11 10 9 11 12 12 9 9 10 10 10 8 8 7 5 5 5 4 4 5 5 4 5 4 4 4 4 4
4 4 5 6 6 7 8 8 9 11 11 11 14 11 12 11 11 12 14 12 11 11 10 9 9 9 8 8 7 6 5 4 5 5 6 5 4 4 5 4 4 4 4 4
Wind_Direction
250 256 276 252 280 240 212 238 186 264 262 286 11 17 12 9 6 8 7 358 350 343 333 323 103 99 104 101 107 93 58 313 326 127 140 128 151 149 132 120 124 130 185 260
270 2 341 280 273 286 303 3 281 291 287 353 25 33 28 17 10 8 2 358 350 348 344 337 107 119 129 143 164 163 163 191 189 181 128 137 217 155 148 161 158 168 215 262
253 325 330 319 273 282 307 30 301 57 280 324 34 42 21 4 5 359 356 350 346 351 345 351 27 150 167 181 172 196 150 129 202 151 139 173 202 182 163 194 154 212 277 358
244 357 247 245 287 207 98 53 25 3 335 193 183 166 51 12 356 352 351 346 335 347 342 2 330 317 15 11 347 4 106 128 161 159 190 187 156 183 171 122 219 323 3 21
165 212 298 312 129 9 258 71 354 306 336 341 339 61 360 3 353 331 328 343 333 347 346 350 333 328 13 44 94 94 87 115 152 183 194 182 199 156 151 123 345 26 34 26
140 180 227 244 268 268 159 204 341 65 36 14 11 59 286 311 320 320 325 333 341 344 357 339 320 342 88 88 117 131 153 177 192 181 194 186 152 149 164 183 57 60 65 68
185 223 281 323 316 342 21 249 215 115 118 60 63 196 256 307 318 309 350 338 331 350 335 314 309 282 230 179 192 162 117 130 124 151 147 136 138 136 31 39 61 73 87 72
110 201 284 327 28 49 283 339 335 314 342 351 230 268 262 271 289 328 324 313 325 329 308 302 281 265 262 278 297 134 126 118 121 112 115 119 62 38 46 43 63 96 95 65
166 224 218 3 116 210 303 278 269 246 243 234 275 270 282 281 286 296 286 277 298 299 300 291 264 245 236 241 180 139 134 130 127 135 90 62 50 28 52 64 81 101 78 26
29 284 214 200 240 80 336 303 299 288 279 269 264 277 283 292 285 275 283 279 278 300 301 298 269 241 220 209 161 152 144 147 151 102 76 43 42 45 81 75 77 74 47 11
253 277 299 266 234 250 320 274 274 282 268 254 259 266 259 260 267 266 249 262 262 266 278 287 283 261 298 270 97 80 97 359 129 92 92 83 62 40 74 55 100 101 42 335
270 285 215 253 272 283 289 275 268 272 272 264 256 261 264 272 271 265 262 246 248 259 282 289 297 11 90 114 108 101 77 313 66 102 106 95 94 84 49 86 88 85 70 55
249 250 254 281 273 258 268 277 281 276 265 261 273 252 260 257 265 274 278 252 248 254 277 318 28 100 91 110 115 118 161 250 90 104 117 117 107 116 126 34 79 68 64 39
263 284 291 268 263 276 272 275 276 265 258 256 256 268 253 261 280 284 279 269 257 260 276 150 124 107 111 103 100 94 86 346 89 94 111 108 114 126 129 99 57 14 343 31
280 260 244 276 290 285 281 281 280 274 275 275 248 244 249 278 278 285 296 303 294 290 247 177 137 132 134 124 123 92 94 79 93 90 93 99 100 92 77 66 61 46 25 16
298 297 291 283 277 279 279 283 268 279 275 262 262 262 258 258 284 303 308 314 231 269 235 189 144 139 148 117 91 94 101 103 89 93 91 85 84 85 78 69 60 46 39 355
298 302 294 293 293 292 289 283 269 274 275 259 259 253 243 253 277 284 272 271 258 265 208 167 150 137 155 111 122 97 104 91 90 87 84 86 86 82 72 72 57 42 20 29
259 273 279 273 281 289 292 283 275 271 267 267 259 253 247 231 237 258 262 275 269 155 165 154 146 135 135 126 107 108 104 103 96 94 90 83 75 73 74 69 52 33 25 31
311 306 304 298 292 291 287 282 277 274 273 263 261 255 248 237 233 248 263 206 175 153 170 142 128 135 129 107 115 111 111 105 96 87 89 84 68 64 60 49 52 38 38 35
308 305 301 299 298 292 288 282 281 276 268 264 252 238 241 224 229 239 187 180 179 164 136 127 133 91 94 123 110 112 111 108 105 101 95 79 71 61 49 45 46 44 49 35
310 309 301 305 313 310 304 293 287 276 270 259 234 213 217 223 214 163 147 134 129 121 105 104 101 111 116 105 104 104 106 108 103 104 104 88 71 50 42 35 40 47 53 31
314 316 308 319 320 313 313 305 296 278 253 242 223 203 198 186 179 161 140 143 129 114 114 105 108 99 99 100 99 98 104 105 106 107 96 95 85 64 39 36 41 45 46 24
314 314 331 337 335 326 329 329 325 337 161 191 179 166 150 128 137 126 111 55 97 93 94 98 102 93 90 93 96 102 100 106 99 94 105 99 80 64 55 48 49 44 34 18
313 326 335 327 340 351 348 346 354 17 49 76 88 107 112 99 70 67 76 85 92 95 99 103 94 93 91 99 94 90 102 91 92 97 93 81 78 66 51 43 44 27 35 28
326 331 345 348 9 0 356 359 17 27 57 60 64 68 80 84 102 97 92 91 96 94 86 75 79 81 86 85 93 96 87 88 93 90 76 67 76 62 58 47 43 7 21 37
334 2 358 22 23 9 8 23 42 36 64 72 63 66 74 80 81 85 88 81 77 80 83 80 80 82 83 87 87 83 85 82 76 70 61 61 68 55 51 43 36 14 19 37
80 35 13 46 36 32 32 37 56 56 57 66 71 56 65 69 73 74 73 78 80 80 78 74 73 78 87 84 80 76 74 72 59 57 58 63 60 58 43 26 40 15 16 26